User: anonymous   Login
Location: Unspecified
(0.0000°N, 0.0000°E)
Time: 12:17:53
(UTC+00:00)
Language:

CSTB 1 - Orbit

View from above orbital plane
View from above orbital plane
View from above satellite
View from above satellite

Ground track
Ground track

The orbit data is extracted from the following two-line orbital elements,

1 31122U 07012F   18347.85964098 +.00000141 +00000-0 +37621-4 0  9990
2 31122 098.0951 297.3173 0077471 220.7927 138.7458 14.60809631620248
Epoch (UTC): 13 December 2018 20:37:52
Eccentricity: 0.0077471
inclination: 98.0951°
perigee height: 636 km
apogee height: 745 km
right ascension of ascending node: 297.3173°
argument of perigee: 220.7927°
revolutions per day: 14.60809631
mean anomaly at epoch: 138.7458°
orbit number at epoch: 62024

The dashed part of the orbit path shows where the satellite is in the earth's shadow,  

DLR